period_start,C,m1,H,J0,J1,J2,J3,J4,J5,JA,JB,JC,JD,JJ,JK,JN,#
2015-01-06 00:01:17,0.12,4.67,0.00,19.98,24.48,27.21,4.92,27.57,1028.84,2039.29,2006.18,2237.19,2419.93,350.09,355.73,27.64,0000 0000 0000 0000 000000
2015-01-06 00:06:17,0.22,4.67,0.00,19.98,24.50,27.20,4.88,27.58,1028.84,2039.18,2004.82,2236.09,2418.77,349.96,355.47,27.67,0000 0000 0000 0000 000000
2015-01-06 00:11:19,0.19,4.68,0.00,20.00,24.50,27.25,4.95,27.66,1028.85,2039.07,2003.60,2235.09,2417.65,350.11,355.66,27.70,0000 0000 0000 0000 000000
2015-01-06 00:16:19,0.21,4.68,0.00,20.01,24.52,27.24,4.89,27.59,1028.84,2039.04,2002.28,2234.03,2416.52,350.07,355.50,27.73,0000 0000 0000 0000 000000
2015-01-06 00:21:21,0.19,4.69,0.00,20.02,24.52,27.25,4.94,27.68,1028.84,2039.05,2000.98,2232.99,2415.53,350.31,355.84,27.76,0000 0000 0000 0000 000000
2015-01-06 00:26:22,0.21,4.70,0.00,20.05,24.54,27.26,4.96,27.57,1028.87,2039.01,1999.70,2231.99,2414.33,350.07,355.67,27.79,0000 0000 0000 0000 000000
2015-01-06 00:31:23,0.20,4.70,0.00,20.03,24.55,27.30,4.84,27.67,1028.85,2039.01,1998.39,2230.95,2413.22,349.91,355.34,27.82,0000 0000 0000 0000 000000
2015-01-06 00:36:24,0.20,4.71,0.00,20.05,24.56,27.29,4.91,27.93,1028.83,2039.01,1997.04,2229.91,2412.11,349.58,354.97,27.85,0000 0000 0000 0000 000000
2015-01-06 00:41:26,0.25,4.71,0.00,20.05,24.57,27.30,4.92,27.82,1028.83,2039.00,1995.73,2228.84,2410.92,350.03,355.30,27.88,0000 0000 0000 0000 000000
2015-01-06 00:46:27,0.21,4.72,0.00,20.10,24.58,27.29,4.93,27.77,1028.83,2039.00,1994.61,2227.81,2409.77,349.81,355.43,27.91,0000 0000 0000 0000 000000
2015-01-06 00:51:28,0.21,4.73,0.00,20.09,24.60,27.31,4.81,27.52,1028.83,2039.00,1993.21,2226.75,2408.65,349.00,354.34,27.94,0000 0000 0000 0000 000000
2015-01-06 00:56:29,0.22,4.73,0.00,20.11,24.60,27.32,4.95,27.91,1028.83,2039.00,1991.81,2225.73,2407.60,350.41,355.71,27.97,0000 0000 0000 0000 000000
2015-01-06 01:01:30,0.22,4.74,0.00,20.05,24.62,27.35,4.87,27.68,1028.83,2038.99,1990.51,2224.66,2406.40,349.71,354.98,27.99,0000 0000 0000 0000 000000
2015-01-06 01:06:32,0.19,4.75,0.00,20.12,24.62,27.34,4.91,27.63,1028.83,2038.98,1989.25,2223.65,2405.26,350.21,355.74,28.02,0000 0000 0000 0000 000000
2015-01-06 01:11:33,0.20,4.75,0.00,20.11,24.64,27.35,4.94,27.67,1028.83,2038.98,1988.06,2222.57,2404.03,350.38,355.70,28.05,0000 0000 0000 0000 000000
2015-01-06 01:16:34,0.22,4.76,0.00,20.10,24.65,27.37,4.93,27.68,1028.82,2038.96,1986.68,2221.49,2402.89,350.01,355.36,28.08,0000 0000 0000 0000 000000
2015-01-06 01:21:36,0.21,4.76,0.00,20.08,24.66,27.39,4.86,27.48,1028.83,2038.92,1985.41,2220.45,2401.77,349.84,355.23,28.11,0000 0000 0000 0000 000000
2015-01-06 01:26:37,0.14,4.77,0.00,20.10,24.67,27.42,4.96,27.78,1028.83,2038.71,1984.08,2219.41,2400.63,350.07,355.21,28.14,0000 0000 0000 0000 000000
2015-01-06 01:31:38,0.15,4.77,0.00,20.15,24.68,27.41,4.89,27.68,1028.84,2038.46,1982.84,2218.33,2399.52,349.63,354.98,28.17,0000 0000 0000 0000 000000
2015-01-06 01:36:40,0.20,4.78,0.00,20.13,24.70,27.42,4.93,27.68,1028.83,2038.36,1981.60,2217.30,2398.35,350.49,355.60,28.20,0000 0000 0000 0000 000000
2015-01-06 01:41:41,0.19,4.79,0.00,20.13,24.70,27.40,4.88,27.81,1028.83,2038.21,1980.20,2216.22,2397.16,349.74,354.85,28.23,0000 0000 0000 0000 000000
2015-01-06 01:46:42,0.20,4.79,0.00,20.15,24.71,27.42,4.87,27.71,1028.83,2038.10,1978.88,2215.11,2395.95,349.81,355.13,28.26,0000 0000 0000 0000 000000
2015-01-06 01:51:44,0.22,4.80,0.00,20.21,24.72,27.43,4.86,27.70,1028.82,2038.03,1977.53,2214.02,2394.78,350.24,355.40,28.29,0000 0000 0000 0000 000000
2015-01-06 01:56:45,0.21,4.80,0.00,20.20,24.73,27.47,4.91,27.71,1028.71,2038.02,1976.14,2212.95,2393.64,350.64,355.76,28.32,0000 0000 0000 0000 000000
2015-01-06 02:01:46,0.23,4.81,0.00,20.18,24.75,27.47,4.89,27.59,1028.58,2038.01,1974.80,2211.87,2392.45,349.91,354.90,28.35,0000 0000 0000 0000 000000
2015-01-06 02:06:47,0.21,4.82,0.00,20.18,24.75,27.48,4.87,27.65,1028.57,2038.00,1973.52,2210.84,2391.36,349.86,354.91,28.37,0000 0000 0000 0000 000000
2015-01-06 02:11:48,0.22,4.82,0.00,20.18,24.77,27.51,4.89,27.56,1028.56,2038.00,1972.21,2209.72,2390.14,350.01,355.15,28.40,0000 0000 0000 0000 000000
2015-01-06 02:16:50,0.21,4.83,0.00,20.24,24.77,27.49,4.98,27.57,1028.58,2038.00,1970.92,2208.66,2388.96,350.20,355.25,28.43,0000 0000 0000 0000 000000
2015-01-06 02:21:51,0.23,4.84,0.00,20.23,24.79,27.50,4.96,27.67,1028.46,2038.00,1969.64,2207.64,2387.79,350.27,355.25,28.46,0000 0000 0000 0000 000000
2015-01-06 02:26:53,0.23,4.84,0.00,20.23,24.80,27.50,4.95,27.67,1028.39,2038.00,1968.31,2206.51,2386.62,349.99,354.86,28.49,0000 0000 0000 0000 000000
2015-01-06 02:31:54,0.23,4.85,0.00,20.21,24.80,27.53,4.90,27.68,1028.40,2038.00,1966.79,2205.40,2385.46,349.76,354.86,28.52,0000 0000 0000 0000 000000
2015-01-06 02:36:55,0.20,4.86,0.00,20.20,24.82,27.54,4.90,27.73,1028.43,2037.99,1965.39,2204.28,2384.28,349.67,354.59,28.55,0000 0000 0000 0000 000000
2015-01-06 02:41:56,0.22,4.86,0.00,20.27,24.82,27.56,4.86,27.73,1028.41,2037.99,1963.99,2203.14,2383.03,349.40,354.44,28.58,0000 0000 0000 0000 000000
2015-01-06 02:46:58,0.25,4.87,0.00,20.29,24.83,27.54,4.75,27.66,1028.36,2037.98,1962.57,2202.02,2381.85,348.87,353.85,28.61,0000 0000 0000 0000 000000
2015-01-06 02:51:59,0.23,4.88,0.00,20.27,24.85,27.58,4.78,27.65,1028.34,2037.98,1961.09,2200.89,2380.64,349.83,354.89,28.64,0000 0000 0000 0000 000000
2015-01-06 02:57:00,0.26,4.88,0.00,20.23,24.85,27.59,4.90,27.82,1028.34,2037.98,1959.62,2199.74,2379.46,350.19,355.23,28.67,0000 0000 0000 0000 000000
2015-01-06 03:02:01,0.22,4.89,0.00,20.24,24.85,27.61,4.81,27.73,1028.34,2037.97,1958.18,2198.60,2378.24,349.66,354.44,28.70,0000 0000 0000 0000 000000
2015-01-06 03:07:03,0.23,4.90,0.00,20.22,24.87,27.62,4.90,27.80,1028.35,2037.96,1956.80,2197.52,2377.05,350.36,355.40,28.73,0000 0000 0000 0000 000000
2015-01-06 03:12:04,0.24,4.90,0.00,20.28,24.87,27.62,4.93,27.74,1028.36,2037.97,1955.45,2196.41,2375.79,349.81,354.76,28.76,0000 0000 0000 0000 000000
2015-01-06 03:17:05,0.23,4.91,0.00,20.24,24.87,27.66,4.81,27.77,1028.35,2037.95,1953.90,2195.24,2374.57,349.89,355.08,28.79,0000 0000 0000 0000 000000
2015-01-06 03:22:07,0.22,4.92,0.00,20.23,24.89,27.65,4.96,28.01,1028.38,2037.94,1952.51,2194.09,2373.41,350.39,355.36,28.81,0000 0000 0000 0000 000000
2015-01-06 03:27:08,0.22,4.93,0.00,20.22,24.90,27.66,4.91,27.79,1028.54,2037.93,1951.05,2192.96,2372.14,350.57,355.83,28.84,0000 0000 0000 0000 000000
2015-01-06 03:32:09,0.23,4.93,0.00,20.22,24.90,27.69,4.93,27.73,1028.74,2037.80,1949.51,2191.80,2370.86,350.38,355.31,28.87,0000 0000 0000 0000 000000
2015-01-06 03:37:11,0.27,4.94,0.00,20.25,24.90,27.71,4.97,27.69,1028.78,2037.87,1948.08,2190.68,2369.65,350.45,355.70,28.90,0000 0000 0000 0000 000000
2015-01-06 03:42:12,0.21,4.95,0.00,20.24,24.90,27.73,4.87,27.77,1028.80,2037.58,1946.56,2189.47,2368.40,349.75,354.73,28.93,0000 0000 0000 0000 000000
2015-01-06 03:47:13,0.21,4.95,0.00,20.21,24.91,27.72,4.90,27.63,1028.81,2037.65,1945.29,2188.45,2367.19,350.15,355.47,28.96,0000 0000 0000 0000 000000
2015-01-06 03:52:14,0.19,4.96,0.00,20.19,24.91,27.70,4.90,27.62,1028.82,2037.45,1943.82,2187.25,2366.05,349.61,354.83,28.99,0000 0000 0000 0000 000000
2015-01-06 03:57:15,0.21,4.97,0.00,20.18,24.92,27.74,4.91,27.83,1028.82,2037.34,1942.32,2186.04,2364.82,349.87,355.11,29.02,0000 0000 0000 0000 000000
2015-01-06 04:02:17,0.28,4.97,0.00,20.25,24.92,27.73,4.84,27.80,1028.82,2037.43,1940.81,2184.94,2363.63,349.46,354.90,29.05,0000 0000 0000 0000 000000
2015-01-06 04:07:18,0.20,4.98,0.00,20.25,24.92,27.71,4.92,27.95,1028.84,2037.26,1939.38,2183.75,2362.38,350.76,355.78,29.08,0000 0000 0000 0000 000000
2015-01-06 04:12:19,0.25,4.99,0.00,20.22,24.92,27.73,4.87,27.88,1028.86,2037.15,1937.81,2182.56,2361.09,350.53,355.77,29.11,0000 0000 0000 0000 000000
2015-01-06 04:17:21,0.22,4.99,0.00,20.25,24.92,27.72,4.91,27.77,1028.84,2037.15,1936.49,2181.45,2359.87,349.59,354.74,29.14,0000 0000 0000 0000 000000
2015-01-06 04:22:22,0.25,5.00,0.00,20.22,24.92,27.76,4.89,27.82,1028.84,2037.15,1934.98,2180.34,2358.60,349.90,355.17,29.17,0000 0000 0000 0000 000000
2015-01-06 04:27:23,0.26,5.01,0.00,20.22,24.92,27.80,4.84,27.87,1028.84,2037.26,1933.56,2179.20,2357.41,349.78,355.01,29.20,0000 0000 0000 0000 000000
2015-01-06 04:32:25,0.21,5.02,0.00,20.21,24.92,27.75,4.91,28.06,1028.84,2037.16,1932.07,2177.99,2356.11,350.08,355.32,29.22,0000 0000 0000 0000 000000
2015-01-06 04:37:26,0.25,5.02,0.00,20.21,24.92,27.81,4.89,27.94,1028.84,2037.11,1930.61,2176.83,2354.86,349.93,355.12,29.25,0000 0000 0000 0000 000000
2015-01-06 04:42:27,0.25,5.03,0.00,20.21,24.92,27.81,4.93,27.98,1028.86,2037.05,1929.07,2175.61,2353.56,350.05,355.34,29.28,0000 0000 0000 0000 000000
2015-01-06 04:47:28,0.24,5.04,0.00,20.19,24.92,27.83,4.81,27.88,1028.97,2037.12,1927.75,2174.64,2352.42,349.81,355.00,29.31,0000 0000 0000 0000 000000
2015-01-06 04:52:29,0.25,5.04,0.00,20.21,24.92,27.80,4.86,27.83,1029.27,2037.21,1926.42,2173.57,2351.20,349.65,355.06,29.34,0000 0000 0000 0000 000000
2015-01-06 04:57:31,0.25,5.05,0.00,20.19,24.92,27.81,4.92,27.71,1029.31,2037.39,1925.04,2172.49,2349.97,350.05,355.58,29.37,0000 0000 0000 0000 000000
2015-01-06 05:02:32,0.25,5.06,0.00,20.16,24.92,27.83,4.97,27.89,1029.31,2037.32,1923.62,2171.38,2348.72,350.16,355.76,29.40,0000 0000 0000 0000 000000
2015-01-06 05:07:33,0.21,5.07,0.00,20.17,24.92,27.88,4.85,27.79,1029.32,2037.34,1922.20,2170.19,2347.58,349.81,355.22,29.43,0000 0000 0000 0000 000000
2015-01-06 05:12:35,0.22,5.07,0.00,20.19,24.92,27.88,4.92,27.77,1029.32,2037.18,1920.73,2169.06,2346.38,349.71,355.01,29.46,0000 0000 0000 0000 000000
2015-01-06 05:17:36,0.27,5.08,0.00,20.17,24.90,27.85,4.94,27.87,1029.35,2037.33,1919.43,2167.99,2345.16,349.98,355.78,29.49,0000 0000 0000 0000 000000
2015-01-06 05:22:37,0.23,5.09,0.00,20.17,24.90,27.82,4.85,27.84,1029.39,2037.41,1918.00,2166.89,2343.97,349.46,354.97,29.52,0000 0000 0000 0000 000000
2015-01-06 05:27:39,0.30,5.09,0.00,20.16,24.90,27.81,4.79,27.61,1029.63,2037.50,1916.67,2165.79,2342.77,349.73,355.31,29.55,0000 0000 0000 0000 000000
2015-01-06 05:32:40,0.18,5.10,0.00,20.19,24.90,27.71,4.93,27.77,1029.76,2037.35,1915.24,2164.64,2341.57,350.09,355.95,29.58,0000 0000 0000 0000 000000
2015-01-06 05:37:41,0.25,5.11,0.00,20.22,24.90,27.76,4.94,27.82,1029.75,2037.36,1913.84,2163.58,2340.39,350.54,355.96,29.61,0000 0000 0000 0000 000000
2015-01-06 05:42:42,0.21,5.11,0.00,20.20,24.90,27.72,4.86,27.71,1029.75,2037.19,1912.39,2162.40,2339.14,350.03,355.71,29.63,0000 0000 0000 0000 000000
2015-01-06 05:47:44,0.22,5.12,0.00,20.18,24.90,27.70,4.91,27.77,1029.69,2037.31,1911.09,2161.36,2338.02,349.69,355.22,29.66,0000 0000 0000 0000 000000
2015-01-06 05:52:45,0.28,5.13,0.00,20.19,24.90,27.67,4.92,27.85,1029.69,2037.38,1909.66,2160.31,2336.83,350.75,356.38,29.69,0000 0000 0000 0000 000000
2015-01-06 05:57:46,0.29,5.14,0.00,20.25,24.90,27.70,4.76,27.72,1029.74,2037.61,1908.38,2159.31,2335.75,349.11,354.89,29.72,0000 0000 0000 0000 000000
2015-01-06 06:02:47,0.19,5.15,0.00,20.23,24.90,27.67,4.98,27.67,1029.73,2037.78,1907.07,2158.27,2334.62,350.29,355.42,29.75,0000 0000 0000 0000 000000
2015-01-06 06:07:48,0.26,5.15,0.00,20.24,24.90,27.68,4.89,27.87,1029.69,2037.75,1905.72,2157.15,2333.44,350.17,355.80,29.78,0000 0000 0000 0000 000000
2015-01-06 06:12:49,0.20,5.16,0.00,20.22,24.90,27.65,4.91,27.82,1029.68,2037.71,1904.40,2156.09,2332.24,349.95,355.35,29.81,0000 0000 0000 0000 000000
2015-01-06 06:17:51,0.25,5.17,0.00,20.21,24.90,27.70,4.97,27.76,1029.75,2037.73,1902.89,2154.90,2330.98,350.37,355.81,29.84,0000 0000 0000 0000 000000
2015-01-06 06:22:52,0.25,5.17,0.00,20.24,24.90,27.65,4.93,27.68,1029.76,2037.48,1901.35,2153.69,2329.63,349.50,354.91,29.87,0000 0000 0000 0000 000000
2015-01-06 06:27:53,0.21,5.18,0.00,20.31,24.90,27.60,4.91,27.66,1029.75,2037.32,1899.80,2152.49,2328.39,350.18,355.69,29.90,0000 0000 0000 0000 000000
2015-01-06 06:32:55,0.20,5.19,0.00,20.28,24.92,27.64,4.91,27.71,1029.71,2037.23,1898.40,2151.39,2327.17,350.03,355.40,29.93,0000 0000 0000 0000 000000
2015-01-06 06:37:56,0.21,5.19,0.00,20.27,24.92,27.66,4.94,27.89,1029.44,2037.10,1897.02,2150.28,2325.97,349.92,355.08,29.96,0000 0000 0000 0000 000000
2015-01-06 06:42:57,0.22,5.20,0.00,20.24,24.92,27.68,4.91,27.93,1029.72,2037.07,1895.77,2149.24,2324.87,349.71,355.20,29.99,0000 0000 0000 0000 000000
2015-01-06 06:47:59,0.23,5.20,0.00,20.31,24.92,27.69,4.85,27.81,1029.80,2037.07,1894.51,2148.29,2323.75,349.67,354.94,30.02,0000 0000 0000 0000 000000
2015-01-06 06:53:00,0.22,5.21,0.00,20.32,24.92,27.70,4.94,27.72,1030.11,2037.07,1893.18,2147.18,2322.63,350.70,356.14,30.04,0000 0000 0000 0000 000000
2015-01-06 06:58:01,0.22,5.22,0.00,20.33,24.93,27.68,4.86,27.62,1030.30,2037.04,1891.87,2146.15,2321.51,350.01,355.80,30.07,0000 0000 0000 0000 000000
2015-01-06 07:03:02,0.22,5.23,0.00,20.30,24.94,27.68,4.98,27.89,1030.29,2037.02,1890.56,2145.14,2320.37,350.00,355.58,30.10,0000 0000 0000 0000 000000
2015-01-06 07:08:04,0.22,5.23,0.00,20.29,24.95,27.67,4.97,27.87,1030.29,2037.03,1889.34,2144.10,2319.29,350.18,355.80,30.13,0000 0000 0000 0000 000000
2015-01-06 07:13:05,0.22,5.24,0.00,20.28,24.95,27.71,4.91,27.77,1030.28,2037.02,1888.03,2143.01,2318.11,350.01,355.72,30.16,0000 0000 0000 0000 000000
2015-01-06 07:18:06,0.26,5.25,0.00,20.29,24.95,27.72,4.97,27.77,1030.29,2037.02,1886.60,2141.93,2316.92,350.11,355.55,30.19,0000 0000 0000 0000 000000
2015-01-06 07:23:07,0.22,5.25,0.00,20.34,24.95,27.69,4.96,27.72,1030.29,2037.03,1885.37,2140.86,2315.82,349.98,355.43,30.22,0000 0000 0000 0000 000000
2015-01-06 07:28:08,0.25,5.26,0.00,20.32,24.97,27.70,4.84,27.72,1030.30,2037.03,1883.98,2139.78,2314.58,349.82,355.53,30.25,0000 0000 0000 0000 000000
2015-01-06 07:33:10,0.26,5.27,0.00,20.34,24.97,27.70,4.93,27.88,1030.29,2037.01,1882.55,2138.66,2313.46,350.30,356.03,30.28,0000 0000 0000 0000 000000
2015-01-06 07:38:11,0.23,5.27,0.00,20.34,24.97,27.71,4.86,28.03,1030.20,2037.00,1881.15,2137.54,2312.22,349.98,355.38,30.31,0000 0000 0000 0000 000000
2015-01-06 07:43:12,0.24,5.28,0.00,20.34,24.97,27.70,4.98,27.99,1029.98,2037.00,1879.79,2136.41,2310.98,350.43,355.99,30.34,0000 0000 0000 0000 000000
2015-01-06 07:48:14,0.24,5.29,0.00,20.40,24.97,27.70,4.91,27.94,1029.81,2037.00,1878.53,2135.37,2309.81,350.16,355.45,30.37,0000 0000 0000 0000 000000
2015-01-06 07:53:15,0.22,5.30,0.00,20.39,24.97,27.73,5.04,27.98,1029.80,2037.00,1877.20,2134.22,2308.64,350.19,355.49,30.40,0000 0000 0000 0000 000000
2015-01-06 07:58:16,0.23,5.30,0.00,20.38,24.98,27.74,4.88,28.00,1029.87,2037.00,1875.86,2133.19,2307.49,349.76,354.97,30.43,0000 0000 0000 0000 000000
2015-01-06 08:03:17,0.24,5.31,0.00,20.37,24.99,27.78,4.88,27.82,1030.21,2037.00,1874.56,2132.05,2306.29,350.16,355.26,30.45,0000 0000 0000 0000 000000
2015-01-06 08:08:19,0.23,5.32,0.00,20.36,25.00,27.84,4.93,27.73,1030.00,2037.00,1873.21,2130.92,2305.04,350.11,355.51,30.48,0000 0000 0000 0000 000000
2015-01-06 08:13:20,0.29,5.32,0.00,20.39,25.00,27.86,4.85,27.84,1030.04,2037.00,1871.77,2129.75,2303.74,350.00,355.43,30.51,0000 0000 0000 0000 000000
2015-01-06 08:18:21,0.25,5.33,0.00,20.35,25.00,27.82,4.93,27.93,1030.11,2037.00,1870.37,2128.58,2302.62,349.94,355.29,30.54,0000 0000 0000 0000 000000
2015-01-06 08:23:23,0.24,5.34,0.00,20.32,25.00,27.89,4.89,27.97,1030.08,2037.00,1868.96,2127.47,2301.42,349.88,355.39,30.57,0000 0000 0000 0000 000000
2015-01-06 08:28:24,0.24,5.35,0.00,20.31,25.00,27.88,4.94,27.94,1029.88,2037.00,1867.62,2126.41,2300.27,349.68,355.04,30.60,0000 0000 0000 0000 000000
2015-01-06 08:33:25,0.22,5.35,0.00,20.33,25.00,27.92,4.89,27.76,1029.85,2036.99,1866.22,2125.26,2299.01,350.21,355.52,30.63,0000 0000 0000 0000 000000
2015-01-06 08:38:26,0.26,5.36,0.00,20.33,25.00,27.94,4.93,27.93,1029.80,2036.99,1864.79,2124.07,2297.79,349.94,355.22,30.66,0000 0000 0000 0000 000000
2015-01-06 08:43:28,0.23,5.37,0.00,20.28,25.00,27.96,4.97,27.87,1029.81,2036.99,1863.49,2123.02,2296.64,350.42,355.79,30.69,0000 0000 0000 0000 000000
2015-01-06 08:48:29,0.21,5.38,0.00,20.24,25.00,27.97,4.95,27.83,1029.87,2036.99,1862.16,2121.98,2295.57,350.28,355.93,30.72,0000 0000 0000 0000 000000
2015-01-06 08:53:30,0.25,5.38,0.00,20.24,24.99,27.89,4.86,27.66,1030.19,2036.99,1860.81,2120.90,2294.41,349.89,355.69,30.75,0000 0000 0000 0000 000000
2015-01-06 08:58:32,0.23,5.39,0.00,20.26,24.99,27.92,4.95,27.68,1030.28,2036.99,1859.58,2119.84,2293.23,349.99,355.40,30.78,0000 0000 0000 0000 000000
2015-01-06 09:03:33,0.20,5.40,0.00,20.23,24.97,27.93,4.95,27.69,1030.29,2036.99,1858.33,2118.85,2292.13,349.80,355.47,30.81,0000 0000 0000 0000 000000
2015-01-06 09:08:34,0.25,5.40,0.00,20.23,24.97,27.90,4.86,27.68,1030.29,2036.99,1856.92,2117.79,2291.02,349.85,355.62,30.84,0000 0000 0000 0000 000000
2015-01-06 09:13:36,0.25,5.41,0.00,20.20,24.97,27.86,4.94,27.75,1030.29,2036.99,1855.63,2116.77,2289.92,350.05,355.75,30.87,0000 0000 0000 0000 000000
2015-01-06 09:18:37,0.22,5.42,0.00,20.23,24.97,27.90,4.91,27.77,1030.29,2036.99,1854.54,2115.71,2288.80,349.86,355.71,30.89,0000 0000 0000 0000 000000
2015-01-06 09:23:38,0.22,5.42,0.00,20.23,24.97,27.90,4.90,27.67,1030.30,2036.99,1853.29,2114.69,2287.71,349.47,355.04,30.92,0000 0000 0000 0000 000000
2015-01-06 09:28:39,0.23,5.43,0.00,20.20,24.97,27.87,4.92,27.59,1030.33,2036.99,1851.96,2113.67,2286.55,350.12,355.69,30.95,0000 0000 0000 0000 000000
2015-01-06 09:33:40,0.25,5.44,0.00,20.23,24.97,27.84,4.89,27.75,1030.31,2036.99,1850.62,2112.61,2285.44,349.41,355.31,30.98,0000 0000 0000 0000 000000
2015-01-06 09:38:42,0.23,5.44,0.00,20.22,24.97,27.85,4.91,27.93,1030.29,2036.99,1849.32,2111.55,2284.24,349.99,355.75,31.01,0000 0000 0000 0000 000000
2015-01-06 09:43:43,0.20,5.45,0.00,20.25,24.96,27.84,4.92,27.55,1030.31,2037.00,1847.97,2110.64,2283.05,350.45,356.13,31.04,0000 0000 0000 0000 000000
2015-01-06 09:48:44,0.27,5.46,0.00,20.25,24.96,27.81,4.85,27.71,1030.31,2037.00,1846.64,2109.57,2281.90,349.21,354.89,31.07,0000 0000 0000 0000 000000
2015-01-06 09:53:45,0.23,5.46,0.00,20.26,24.96,27.74,4.87,27.69,1030.47,2037.00,1845.33,2108.48,2280.75,349.97,355.84,31.10,0000 0000 0000 0000 000000
2015-01-06 09:58:46,0.21,5.47,0.00,20.28,24.95,27.76,4.87,27.69,1030.70,2037.00,1843.99,2107.47,2279.72,349.87,355.71,31.13,0000 0000 0000 0000 000000
2015-01-06 10:03:48,0.27,5.48,0.00,20.26,24.95,27.75,4.97,27.82,1030.47,2037.00,1842.60,2106.39,2278.51,350.35,355.89,31.16,0000 0000 0000 0000 000000
2015-01-06 10:08:49,0.22,5.49,0.00,20.29,24.95,27.74,4.88,27.74,1030.30,2037.00,1841.36,2105.32,2277.37,350.16,356.09,31.19,0000 0000 0000 0000 000000
2015-01-06 10:13:50,0.23,5.49,0.00,20.29,24.96,27.76,4.90,27.80,1030.29,2037.00,1839.95,2104.21,2276.22,350.20,355.86,31.22,0000 0000 0000 0000 000000
2015-01-06 10:18:51,0.25,5.50,0.00,20.28,24.96,27.70,4.88,27.82,1030.30,2037.00,1838.59,2103.17,2275.04,350.11,355.74,31.25,0000 0000 0000 0000 000000
2015-01-06 10:23:53,0.23,5.51,0.00,20.31,24.97,27.73,4.90,27.73,1030.59,2037.00,1837.29,2102.05,2273.87,350.03,355.78,31.27,0000 0000 0000 0000 000000
2015-01-06 10:28:54,0.26,5.52,0.00,20.27,24.97,27.73,4.87,27.84,1030.78,2037.00,1835.87,2100.91,2272.70,349.73,355.54,31.30,0000 0000 0000 0000 000000
2015-01-06 10:33:55,0.28,5.52,0.00,20.24,24.97,27.73,4.98,27.84,1030.77,2037.00,1834.53,2099.77,2271.53,350.61,356.47,31.33,0000 0000 0000 0000 000000
2015-01-06 10:38:57,0.24,5.53,0.00,20.29,24.97,27.75,4.85,27.82,1030.72,2037.00,1833.15,2098.67,2270.19,349.58,355.18,31.36,0000 0000 0000 0000 000000
2015-01-06 10:43:58,0.26,5.54,0.00,20.31,24.97,27.75,4.97,27.73,1030.51,2036.99,1831.75,2097.56,2268.92,350.33,355.99,31.39,0000 0000 0000 0000 000000
2015-01-06 10:49:00,0.24,5.54,0.00,20.31,24.97,27.73,4.87,27.77,1030.34,2036.99,1830.45,2096.49,2267.79,350.23,355.81,31.42,0000 0000 0000 0000 000000
2015-01-06 10:54:01,0.24,5.55,0.00,20.30,24.97,27.72,4.94,27.86,1030.48,2036.99,1829.07,2095.38,2266.58,350.32,355.89,31.45,0000 0000 0000 0000 000000
2015-01-06 10:59:02,0.26,5.56,0.00,20.28,24.97,27.74,4.93,27.83,1030.78,2036.99,1827.69,2094.27,2265.38,349.85,355.73,31.48,0000 0000 0000 0000 000000
2015-01-06 11:04:03,0.23,5.57,0.00,20.33,24.97,27.76,4.91,27.63,1030.78,2036.99,1826.28,2093.15,2264.23,350.19,355.95,31.51,0000 0000 0000 0000 000000
2015-01-06 11:09:04,0.24,5.58,0.00,20.37,24.98,27.76,4.94,27.58,1030.75,2036.99,1824.89,2092.03,2263.01,350.18,355.86,31.54,0000 0000 0000 0000 000000
2015-01-06 11:14:05,0.28,5.58,0.00,20.36,24.99,27.74,4.91,27.81,1030.56,2036.99,1823.52,2090.89,2261.78,349.69,355.30,31.57,0000 0000 0000 0000 000000
2015-01-06 11:19:06,0.25,5.59,0.00,20.34,25.00,27.73,4.98,27.63,1030.32,2036.98,1822.09,2089.78,2260.56,350.15,355.71,31.60,0000 0000 0000 0000 000000
2015-01-06 11:24:07,0.26,5.60,0.00,20.34,25.00,27.72,4.98,27.64,1030.41,2036.98,1820.76,2088.71,2259.39,350.09,355.63,31.63,0000 0000 0000 0000 000000
2015-01-06 11:29:09,0.25,5.61,0.00,20.36,25.00,27.76,4.99,27.73,1030.50,2036.98,1819.44,2087.60,2258.22,349.78,355.47,31.66,0000 0000 0000 0000 000000
2015-01-06 11:34:10,0.27,5.61,0.00,20.38,25.00,27.77,4.88,27.57,1030.42,2036.98,1817.92,2086.42,2256.92,350.20,355.71,31.68,0000 0000 0000 0000 000000
2015-01-06 11:39:12,0.27,5.62,0.00,20.42,25.02,27.76,4.90,27.75,1030.39,2036.98,1816.44,2085.27,2255.65,350.08,355.66,31.71,0000 0000 0000 0000 000000
2015-01-06 11:44:13,0.24,5.63,0.00,20.41,25.02,27.75,4.95,27.68,1030.31,2036.96,1814.96,2084.07,2254.51,350.48,355.97,31.74,0000 0000 0000 0000 000000
2015-01-06 11:49:14,0.26,5.64,0.00,20.43,25.02,27.76,4.93,27.66,1030.31,2036.95,1813.60,2082.97,2253.28,350.62,356.09,31.77,0000 0000 0000 0000 000000
2015-01-06 11:54:15,0.24,5.65,0.00,20.44,25.03,27.76,4.88,27.61,1030.30,2036.96,1812.28,2081.87,2252.05,349.39,354.72,31.80,0000 0000 0000 0000 000000
2015-01-06 11:59:16,0.29,5.65,0.00,20.43,25.05,27.77,4.89,27.73,1030.29,2036.96,1810.86,2080.74,2250.81,349.70,354.99,31.83,0000 0000 0000 0000 000000
2015-01-06 12:04:17,0.26,5.66,0.00,20.44,25.05,27.78,4.93,27.68,1030.29,2036.91,1809.44,2079.55,2249.61,350.14,355.45,31.86,0000 0000 0000 0000 000000
2015-01-06 12:09:19,0.22,5.67,0.00,20.48,25.06,27.78,4.97,27.71,1030.29,2036.80,1808.02,2078.42,2248.38,350.46,355.91,31.89,0000 0000 0000 0000 000000
2015-01-06 12:14:20,0.28,5.68,0.00,20.50,25.07,27.79,4.95,27.73,1030.29,2036.86,1806.59,2077.31,2247.18,350.54,355.82,31.92,0000 0000 0000 0000 000000
2015-01-06 12:19:22,0.21,5.68,0.00,20.50,25.07,27.77,4.94,27.71,1030.29,2036.76,1805.34,2076.20,2245.94,350.18,355.47,31.95,0000 0000 0000 0000 000000
2015-01-06 12:24:23,0.25,5.69,0.00,20.50,25.08,27.82,4.86,27.67,1030.29,2036.64,1803.96,2075.04,2244.72,349.83,355.23,31.98,0000 0000 0000 0000 000000
2015-01-06 12:29:25,0.22,5.70,0.00,20.51,25.10,27.80,4.89,27.82,1030.29,2036.48,1802.60,2073.92,2243.50,350.12,355.48,32.01,0000 0000 0000 0000 000000
2015-01-06 12:34:26,0.26,5.70,0.00,20.49,25.10,27.82,4.86,27.64,1030.29,2036.32,1801.11,2072.69,2242.17,349.65,355.21,32.04,0000 0000 0000 0000 000000
2015-01-06 12:39:28,0.27,5.71,0.00,20.53,25.10,27.85,4.90,27.86,1030.29,2036.09,1799.50,2071.43,2240.72,349.78,355.10,32.07,0000 0000 0000 0000 000000
2015-01-06 12:44:29,0.24,5.72,0.00,20.53,25.12,27.84,4.94,27.66,1030.29,2036.05,1798.04,2070.21,2239.54,350.27,355.46,32.10,0000 0000 0000 0000 000000
2015-01-06 12:49:30,0.27,5.73,0.00,20.54,25.12,27.86,4.92,27.54,1030.29,2036.03,1796.57,2068.96,2238.36,350.33,355.75,32.12,0000 0000 0000 0000 000000
2015-01-06 12:54:31,0.27,5.73,0.00,20.55,25.12,27.86,4.89,27.63,1030.29,2036.02,1795.12,2067.77,2237.08,349.58,354.78,32.15,0000 0000 0000 0000 000000
2015-01-06 12:59:33,0.31,5.74,0.00,20.57,25.14,27.90,4.87,27.56,1030.29,2036.02,1793.61,2066.60,2235.78,350.18,355.42,32.18,0000 0000 0000 0000 000000